Weather History for Milton, FL

Change the Weather History Date:

Monday, March 18, 2013

  Actual Average (KNSE) Record (KNSE)
Temperature  
Mean Temperature 70 °F -  
Max Temperature 80 °F 68 °F 86 °F (2011)
Min Temperature 62 °F 49 °F 35 °F (2007)
Cooling Degree Days 6    
Growing Degree Days 20 (Base 50)    
Moisture  
Dew Point 63 °F    
Average Humidity 85    
Maximum Humidity 94    
Minimum Humidity 61    
Precipitation  
Precipitation 0.00 in - - ()
Sea Level Pressure  
Sea Level Pressure 29.87 in    
Wind  
Wind Speed 7 mph (SSE)    
Max Wind Speed 16 mph    
Max Gust Speed 26 mph    
Visibility 9 miles    
Events      
Averages and records for this station are not official NWS values.
T = Trace of Precipitation, MM = Missing Value Source: NWS Daily Summary

Daily Weather History Graph

Daily Weather History Graph

Search for Another Location

Airport:

Trip Planner

Search our weather history database for the weather conditions in past years. The results will help you decide how hot, cold, wet, or windy it might be!

Date:

Astronomy

Mar. 18, 2013 Rise Set
Actual Time 6:54 AM CDT 6:58 PM CDT
Civil Twilight 6:30 AM CDT 7:22 PM CDT
Nautical Twilight 6:02 AM CDT 7:50 PM CDT
Astronomical Twilight 5:33 AM CDT 8:18 PM CDT
Moon 11:15 AM CDT (3/18) 12:35 AM CDT (3/18)
Length of Visible Light 12h 52m
Length of Day
12h 04m
Waxing Crescent, 41% of the Moon is Illuminated
Mar 18
Waxing Crescent
Mar 19
First Quarter
Mar 27
Full
Apr 2
Last Quarter
Apr 10
New

Hourly Weather History & Observations

Time (CDT) Temp. Dew Point Humidity Pressure Visibility Wind Dir Wind Speed Gust Speed Precip Events Conditions
12:18 AM 64.4 °F 60.8 °F 88% 29.94 in 10.0 mi SSE 5.8 mph - N/A   Mostly Cloudy
12:53 AM 62.6 °F 60.8 °F 94% 29.93 in 10.0 mi SSE 4.6 mph - N/A   Overcast
12:56 AM 63.0 °F 61.0 °F 93% 29.89 in 10.0 mi SSE 5.8 mph - N/A   Overcast
1:56 AM 63.0 °F 61.0 °F 93% 29.88 in 10.0 mi SSE 6.9 mph - N/A   Overcast
2:56 AM 63.0 °F 61.0 °F 93% 29.88 in 10.0 mi SSE 4.6 mph - N/A   Overcast
3:06 AM 62.6 °F 60.8 °F 94% 29.92 in 10.0 mi SSE 4.6 mph - N/A   Overcast
3:35 AM 62.6 °F 60.8 °F 94% 29.91 in 10.0 mi SSE 3.5 mph - N/A   Overcast
3:56 AM 63.0 °F 61.0 °F 93% 29.87 in 10.0 mi SE 4.6 mph - N/A   Overcast
4:39 AM 62.6 °F 60.8 °F 94% 29.91 in 10.0 mi SE 5.8 mph - N/A   Overcast
4:56 AM 63.0 °F 61.0 °F 93% 29.88 in 10.0 mi ESE 4.6 mph - N/A   Overcast
5:56 AM 63.0 °F 60.1 °F 90% 29.89 in 10.0 mi ESE 5.8 mph - N/A   Overcast
6:31 AM 62.6 °F 60.8 °F 94% 29.94 in 10.0 mi SE 6.9 mph - N/A   Overcast
6:56 AM 63.0 °F 60.1 °F 90% 29.91 in 10.0 mi SE 6.9 mph - N/A   Overcast
7:05 AM 62.6 °F 60.8 °F 94% 29.95 in 10.0 mi SE 8.1 mph - N/A   Overcast
7:15 AM 62.6 °F 60.8 °F 94% 29.94 in 10.0 mi SE 6.9 mph - N/A   Overcast
7:56 AM 63.0 °F 61.0 °F 93% 29.90 in 10.0 mi SE 8.1 mph - N/A   Partly Cloudy
8:56 AM 68.0 °F 62.1 °F 81% 29.91 in 10.0 mi SE 5.8 mph - N/A   Overcast
9:56 AM 72.0 °F 63.0 °F 73% 29.90 in 10.0 mi South 10.4 mph - N/A   Scattered Clouds
10:16 AM 73.4 °F 62.6 °F 69% 29.94 in 10.0 mi South 10.4 mph - N/A   Mostly Cloudy
10:56 AM 73.9 °F 64.0 °F 71% 29.89 in 10.0 mi South 11.5 mph - N/A   Overcast
11:45 AM 78.8 °F 64.4 °F 61% 29.91 in 10.0 mi SSW 15.0 mph 26.5 mph N/A   Scattered Clouds
11:56 AM 78.1 °F 64.9 °F 64% 29.87 in 10.0 mi South 15.0 mph 23.0 mph N/A   Partly Cloudy
12:56 PM 79.0 °F 66.0 °F 64% 29.86 in 10.0 mi South 15.0 mph 21.9 mph N/A   Partly Cloudy
1:56 PM 79.0 °F 66.0 °F 64% 29.84 in 10.0 mi South 16.1 mph 23.0 mph N/A   Scattered Clouds
2:56 PM 78.1 °F 66.9 °F 68% 29.81 in 10.0 mi South 15.0 mph - N/A   Overcast
3:56 PM 75.9 °F 66.0 °F 71% 29.80 in 10.0 mi South 15.0 mph 23.0 mph N/A   Mostly Cloudy
4:56 PM 73.9 °F 66.9 °F 79% 29.78 in 10.0 mi South 16.1 mph - N/A   Mostly Cloudy
5:56 PM 73.0 °F 66.9 °F 81% 29.78 in 10.0 mi South 10.4 mph - N/A   Overcast
6:08 PM 71.6 °F 66.2 °F 83% 29.82 in 10.0 mi South 6.9 mph - N/A   Overcast
6:56 PM 72.0 °F 66.9 °F 84% 29.80 in 10.0 mi South 11.5 mph 18.4 mph N/A   Overcast
7:09 PM 71.6 °F 66.2 °F 83% 29.84 in 10.0 mi South 8.1 mph - N/A   Overcast
7:56 PM 71.1 °F 66.9 °F 87% 29.82 in 10.0 mi South 6.9 mph - N/A   Overcast
8:56 PM 70.0 °F 66.9 °F 90% 29.84 in 10.0 mi SE 4.6 mph - N/A   Overcast
9:56 PM 70.0 °F 66.0 °F 87% 29.82 in 10.0 mi SSE 6.9 mph - N/A   Overcast
10:22 PM 69.8 °F 66.2 °F 88% 29.87 in 7.0 mi SSE 5.8 mph - N/A   Overcast
10:44 PM 69.8 °F 66.2 °F 88% 29.86 in 2.0 mi ESE 3.5 mph - N/A   Overcast
10:53 PM 69.8 °F 66.2 °F 88% 29.88 in 1.5 mi Calm Calm - N/A   Overcast
10:56 PM 69.1 °F 66.9 °F 93% 29.84 in 1.2 mi ENE 3.5 mph - N/A   Overcast
11:23 PM 64.4 °F 62.6 °F 94% 29.89 in 3.0 mi NNE 8.1 mph - N/A   Overcast
11:35 PM 66.2 °F 60.8 °F 83% 29.89 in 10.0 mi ENE 9.2 mph - N/A   Overcast
11:56 PM 66.0 °F 62.1 °F 87% 29.87 in 8.0 mi NE 5.8 mph - N/A   Overcast